Location: Starhoo Observatory
(41.8578°N, 70.9669°W)
Time: 13:11:43
(UTC-05:00)

ISS - Visible Passes

Search period start: 28 January 2015 00:00
Search period end: 07 February 2015 00:00
Orbit: 402 x 410 km, 51.6° (Epoch: 28 January)

Date Brightness Start Highest point End Pass type
(mag) Time Alt. Az. Time Alt. Az. Time Alt. Az.
28 Jan -1.1 04:49:22 20° SSE 04:49:22 20° SSE 04:50:35 10° SE visible
29 Jan -0.7 05:32:49 10° SSW 05:32:49 10° SSW 05:32:54 10° SSW visible
03 Feb -0.3 19:25:47 10° SW 19:26:10 13° SW 19:26:10 13° SW visible
04 Feb -2.3 18:34:11 10° SSW 18:36:51 32° SSE 18:36:51 32° SSE visible
05 Feb -1.5 17:43:02 10° S 17:45:20 18° SE 17:47:26 11° E visible
05 Feb -1.2 19:18:22 10° WSW 19:20:08 28° W 19:20:08 28° W visible
06 Feb -3.4 18:26:19 10° SW 18:29:34 84° SSE 18:30:36 41° ENE visible
